Weather Roundup
Issued by NWS

Home | Current Version | Previous Version | Graphics & Text | Print | Product List | Glossary Off
Versions: 1 2 3 4 5 6 7 8 9 10 11 12 13 14 15 16 17 18 19 20 21 22 23 24 25 26 27 28 29 30 31 32 33 34 35 36 37 38 39 40 41 42 43 44 45 46 47 48 49 50

000
NZUS93 KARX 311759
HRRWXR

CURRENT HOURLY OBSERVATIONS ACROSS
MUCH OF THE UPPER MISSISSIPPI VALLEY
NATIONAL WEATHER SERVICE LA CROSSE WI
100 PM CDT FRI JUL 31 2015


...SOUTHEAST MINNESOTA...


CITY           SKY/WX    TMP DP  RH WIND       PRES   REMARKS
ROCHESTER      SUNNY     76  56  49 NW22G28   30.09F
ROCHESTER/MAYO FAIR      76  48  37 W22G37    30.07F
WINONA         MOSUNNY   79  50  36 NW15G25   30.04F
AUSTIN         SUNNY     79  52  38 NW14G23   30.10F
ALBERT LEA     SUNNY     79  57  47 W8        30.11F
DODGE CENTER   SUNNY     75  55  50 NW15G21   30.10F
PRESTON        SUNNY     75  51  42 NW17G29   30.09F
OWATONNA       SUNNY     79  54  41 W13G20    30.10F
FARIBAULT      SUNNY     77  57  50 W9G18     30.09F
$$

...ELSEWHERE IN MINNESOTA...


CITY           SKY/WX    TMP DP  RH WIND       PRES   REMARKS
MINNEAPOLIS    MOSUNNY   80  49  33 W21G26    30.06F
INTNL FALLS    MOSUNNY   71  54  54 NW18G25   29.93F
DULUTH         PTSUNNY   72  51  47 NW16G26   29.97F
RED WING       SUNNY     81  46  30 NW14G21   30.04S
REDWOOD FALLS  SUNNY     82  52  35 NW12G22   30.11F
MANKATO        SUNNY     79  55  44 NW15      30.10F
WORTHINGTON    SUNNY     79  52  38 N10       30.16F
FAIRMONT       SUNNY     79  52  38 NW13      30.13S
$$

...SOUTHWEST WISCONSIN...


CITY           SKY/WX    TMP DP  RH WIND       PRES   REMARKS
LA CROSSE      SUNNY     82  50  32 NW22G30   30.02F
PRAIRIE DU CHI SUNNY     83  47  28 NW15      30.05S
BOSCOBEL       SUNNY     83  51  33 W14G24    30.03F
LONE ROCK      NOT AVBL
PLATTEVILLE    SUNNY     81  52  36 NW16G25   30.05F
FORT MC COY    MOSUNNY   80  46  29 W20G28    30.02F
VIROQUA        FAIR      77  52  41 NW17      30.05F
WIS DELLS      MOSUNNY   80  44  28 W16G28    30.00F
$$

...ELSEWHERE IN WISCONSIN...


CITY           SKY/WX    TMP DP  RH WIND       PRES   REMARKS
MILWAUKEE      MOSUNNY   84  49  29 NW20G29   29.94F
MADISON        MOSUNNY   80  50  34 NW15G25   29.99F
GREEN BAY      MOSUNNY   80  55  42 NW13G25   29.91S
EAU CLAIRE     NOT AVBL
BLACK RVR FLS  FAIR      79  46  31 W15G22    30.01F
MEDFORD        PTSUNNY   74  54  48 W22       29.98F
WAUSAU         MOSUNNY   76  49  38 NW12G22   29.95F
WIS RAPIDS     PTSUNNY   80  47  31 NW16G30   29.99F
MARSHFIELD     MOSUNNY   78  51  38 NW16G31   29.99F
RICE LAKE      MOSUNNY   74  53  48 NW14G24   30.04S
$$

...NORTHEAST IOWA...


CITY           SKY/WX    TMP DP  RH WIND       PRES   REMARKS
DECORAH        SUNNY     77  54  44 NW16      30.08F
MASON CITY     SUNNY     81  55  40 NW15      30.13F
CHARLES CITY   SUNNY     79  59  50 NW14      30.11F
OELWEIN        SUNNY     79  59  50 NW14      30.11S
$$

...ELSEWHERE IN IOWA...


CITY           SKY/WX    TMP DP  RH WIND       PRES   REMARKS
DES MOINES     MOSUNNY   88  64  44 NW3       30.10F
IOWA CITY      SUNNY     86  58  38 NW13      30.08F
FORT DODGE     PTSUNNY   81  63  54 N8        30.14F
$$

...NORTHERN ILLINOIS...


CITY           SKY/WX    TMP DP  RH WIND       PRES   REMARKS
CHICAGO-OHARE  MOSUNNY   86  51  29 W18G30    29.97F
CHICAGO-MIDWAY MOSUNNY   88  51  28 W17       29.97F
MOLINE         SUNNY     89  58  34 NW10G18   30.05F
ROCKFORD       MOSUNNY   85  56  37 NW20      30.02F
PEORIA         SUNNY     88  63  43 N8        30.06F
$$

NOTE: "FAIR" INDICATES FEW OR NO CLOUDS BELOW 12,000 FEET WITH NO
SIGNIFICANT WEATHER AND/OR OBSTRUCTIONS TO VISIBILITY. WIND
SPEEDS ARE IN MILES-PER-HOUR.



USA.gov is the U.S. government's official web portal to all federal, state and local government web resources and services.